Location: Pella
(41.4080°N, 92.9160°W)
Time: 14:41:48
(UTC-05:00)

ASTRO E2 - Visible Passes

Search period start: 19 April 2018 00:00
Search period end: 29 April 2018 00:00
Orbit: 513 x 520 km, 31.4° (Epoch: 19 April)

Date Brightness Start Highest point End Pass type
(mag) Time Alt. Az. Time Alt. Az. Time Alt. Az.
21 Apr 4.9 21:25:07 10° SSW 21:26:04 12° S 21:26:04 12° S visible
22 Apr 4.6 21:07:12 10° SSW 21:09:23 14° SSE 21:09:50 14° SSE visible
23 Apr 4.6 20:49:18 10° SSW 20:51:42 15° SSE 20:53:29 12° SE visible
24 Apr 4.6 20:31:28 10° SSW 20:34:01 16° S 20:36:33 10° SE visible
24 Apr 5.0 22:10:58 10° SW 22:11:55 14° SW 22:11:55 14° SW visible
25 Apr 4.6 21:53:20 10° SW 21:55:22 18° SSW 21:55:22 18° SSW visible
26 Apr 4.4 21:35:43 10° SW 21:38:30 18° S 21:38:45 18° S visible
27 Apr 4.5 21:18:07 10° SW 21:20:49 17° S 21:22:05 15° SSE visible
28 Apr 4.6 21:00:32 10° SW 21:03:08 17° S 21:05:23 11° SSE visible
